Regional Weather Roundup
Issued by NWS

Home | Current Version | Previous Version | Text Only | Print | Product List | Glossary Off
Versions: 1 2 3 4 5 6 7 8 9 10 11 12 13 14 15 16 17 18 19 20 21 22 23 24 25 26 27 28 29 30 31 32 33 34 35 36 37 38 39 40 41 42 43 44 45 46 47 48

000
ASUS43 KDMX 222207
RWRIA

WEATHER ROUNDUP FOR IOWA
NATIONAL WEATHER SERVICE DES MOINES IA
500 PM CDT MON SEP 22 2014

NOTE: "FAIR" INDICATES FEW OR NO CLOUDS BELOW 12,000 FEET WITH NO
SIGNIFICANT WEATHER AND/OR OBSTRUCTIONS TO VISIBILITY.

* - THESE STATIONS ARE NOT NWS STATIONS...THUS NOT UNDER NWS
QUALITY CONTROL.  THEY ALSO DO NOT REPORT WEATHER SUCH
AS PRECIPITATION OR FOG.

IAZ001>003-012>014-020>022-031>034-043>046-222300-
   NORTHWEST IOWA

CITY           SKY/WX    TMP DP  RH WIND       PRES   REMARKS
CARROLL *      SUNNY     72  48  43 MISG      30.21F
CHEROKEE *     SUNNY     72  50  46 S10       30.19F
DENISON *      SUNNY     72  50  46 SW7       30.19F
LE MARS *      SUNNY     72  50  46 S9G17     30.19S
ORANGE CITY *  SUNNY     73  46  38 S9        30.19S
SHELDON *      SUNNY     72  50  46 VRB7      30.17F
SIOUX CITY     MOSUNNY   74  49  41 S9        30.19F
SPENCER        MOSUNNY   72  48  42 SW7       30.19F
STORM LAKE *   SUNNY     70  52  52 S9        30.21F
$$

IAZ055>058-069>071-079>083-090>094-222300-
   SOUTHWEST IOWA

CITY           SKY/WX    TMP DP  RH WIND       PRES   REMARKS
ATLANTIC *     SUNNY     72  48  43 S5        30.21F
AUDUBON *      SUNNY     72  43  35 CALM      30.23F
CLARINDA *     SUNNY     73  48  40 VRB3      30.23F
COUNCIL BLFS * SUNNY     72  54  53 S8        30.21S
CRESTON *      SUNNY     72  50  46 W6        30.23F
HARLAN  *      SUNNY     72  48  43 S9        30.24F
LAMONI         SUNNY     71  51  49 SW7       30.24F
RED OAK *      SUNNY     73  48  40 VRB5      30.21F
SHENANDOAH *   SUNNY     73  48  40 SE5       30.21F
$$

IAZ047>049-059>061-072>074-084-222300-
   CENTRAL IOWA

CITY           SKY/WX    TMP DP  RH WIND       PRES   REMARKS
AMES           SUNNY     71  50  47 SE3       30.21F
ANKENY *       SUNNY     72  50  46 S6        30.22F
CHARITON *     SUNNY     70  50  49 SE3       30.23S HAZE
DES MOINES     MOSUNNY   73  49  42 W7        30.22F
GRINNELL*      SUNNY     70  46  43 CALM      30.23F
KNOXVILLE *    SUNNY     70  50  49 S5        30.22F
MARSHALLTOWN   SUNNY     71  48  43 SW5       30.22F
PELLA *        SUNNY     75  48  38 CALM      30.24F
PERRY *          N/A     73  45  35 S7        30.21F
$$

IAZ004>006-015-016-023>025-035-036-222300-
   NORTH CENTRAL IOWA

CITY           SKY/WX    TMP DP  RH WIND       PRES   REMARKS
ALGONA *       SUNNY     72  48  43 SW3       30.20F
CLARION *        N/A     72  46  40 CALM      30.21F
ESTHERVILLE    MOSUNNY   71  47  42 S14       30.19F
FORT DODGE *   MOSUNNY   72  48  43 S3        30.22S
MASON CITY     SUNNY     71  48  43 S5        30.22F
FOREST CITY *  SUNNY     72  46  40 SW7       30.20F
IOWA FALLS *     N/A     73  45  35 W6        30.22F
$$

IAZ007>011-017>019-026>030-037>042-050>054-066-222300-
   NORTHEAST IOWA

CITY           SKY/WX    TMP DP  RH WIND       PRES   REMARKS
CEDAR RAPIDS   SUNNY     69  47  45 S3        30.23F
CHARLES CITY * SUNNY     72  46  40 SW6       30.22F
CLINTON *      SUNNY     70  43  37 CALM      30.26F
DECORAH *      SUNNY     70  48  46 VRB6      30.20F
DUBUQUE        SUNNY     68  45  43 SW7       30.23F
MONTICELLO *   SUNNY     70  46  43 W6        30.22F
OELWEIN *      SUNNY     70  46  43 VRB5      30.22F
WATERLOO       SUNNY     71  48  43 SW7       30.21F
$$

IAZ064-065-067-068-078-222300-
   EAST CENTRAL IOWA

CITY           SKY/WX    TMP DP  RH WIND       PRES   REMARKS
DAVENPORT      SUNNY     71  41  33 CALM      30.24F
IOWA CITY      SUNNY     70  49  47 S5        30.24F
MT. PLEASANT * SUNNY     73  41  31 W5        30.24F
MUSCATINE *    SUNNY     72  43  35 VRB3      30.24F
QUAD CITIES    SUNNY     69  45  41 S6        30.24F
$$

IAZ062-063-075>077-085>089-095>099-222300-
   SOUTHEAST IOWA

CITY           SKY/WX    TMP DP  RH WIND       PRES   REMARKS
BURLINGTON     SUNNY     70  45  40 VRB5      30.24F
FAIRFIELD *    SUNNY     70  45  40 VRB7      30.24F
FORT MADISON * SUNNY     72  43  35 CALM      30.25S
KEOKUK *       SUNNY     70  48  46 CALM      30.24S HAZE
OSKALOOSA *      N/A     72  48  43 CALM      30.23F
CENTERVILLE *  SUNNY     72  50  46 CALM      30.25F
OTTUMWA        SUNNY     70  48  45 VRB5      30.23F
WASHINGTON *   SUNNY     72  45  37 W5        30.24F
$$

ABBREVIATIONS USED IN REMARKS
   TC - TEMPERATURES IN CELSIUS
  WCI - WIND CHILL INDEX
   HX - HEAT INDEX
  VSB - VISIBILITY
$$




USA.gov is the U.S. government's official web portal to all federal, state and local government web resources and services.